Starlink 11609

operational
NORAD ID: 63132 Int'l Des: 2025-043 Owner: SPXS Country: US Constellation: starlink
LEOCIRCULAR

Über Starlink 11609

Beschreibung wird geladen...

Live-Position

3D-Globus wird geladen...

Nächste Überflüge

Höhenverlauf

Altitude vs Time

uPlot chart will show altitude changes over time

Zweizeiliger Elementsatz

1 63132U 25043A 25353.46511205 .00161954 00000-0 12408-2 0 9994
2 63132 43.0005 14.3978 0001584 268.6505 91.4182 15.70847782 46847
Epoch: 19. Dez. 2025 • Age: 10 hours

Aktueller Status

Höhe 360.2 km
Geschwindigkeit 7.70 km/s
Subsatellitenpunkt 42.67°N, 72.93°E
Startdatum 3. März 2025
Alter 0.7 years
Typ internet

Technische Details

Klassifizierung Payload
Masse 960.00 kg
Trockenmasse 910.00 kg
Gesamtmasse 960.00 kg
Länge 0.30 m
Durchmesser 4.10 m
Spannweite 29.00 m
Form Box + pan
Hersteller SPXS
Bus-Typ Starlink V2MD
Phasenstatus In Orbit
Besitzer/Staat SPXS/US

Große Konstellationen

Loading constellations...